Meteo pe oră la Bolshie Rogatki

Astăzi, 9 Mai, Duminică

Timp Temperatura Precipitaţii Vânt Presiune Umiditate
00:00 +1°C° 0 mm 2 m/s 751 mmHg 83%
01:00 -1°C° 0 mm 2 m/s 752 mmHg 84%
02:00 -1°C° 0 mm 2 m/s 752 mmHg 85%
03:00 -1°C° 0 mm 2 m/s 753 mmHg 85%
04:00 -1°C° 0 mm 2 m/s 753 mmHg 85%
05:00 -1°C° 0 mm 2 m/s 754 mmHg 86%
06:00 +2°C° 0 mm 2 m/s 754 mmHg 76%
07:00 +3°C° 0 mm 3 m/s 754 mmHg 66%
08:00 +5°C° 0 mm 3 m/s 755 mmHg 57%
09:00 +8°C° 0 mm 3 m/s 755 mmHg 51%
10:00 +9°C° 0 mm 3 m/s 755 mmHg 46%
11:00 +10°C° 0 mm 3 m/s 756 mmHg 41%
12:00 +11°C° 0 mm 3 m/s 756 mmHg 39%
13:00 +12°C° 0 mm 3 m/s 756 mmHg 37%
14:00 +13°C° 0 mm 2 m/s 756 mmHg 35%
15:00 +13°C° 0 mm 2 m/s 756 mmHg 36%
16:00 +13°C° 0 mm 2 m/s 756 mmHg 37%
17:00 +13°C° 0 mm 2 m/s 756 mmHg 38%
18:00 +10°C° 0 mm 2 m/s 756 mmHg 48%
19:00 +8°C° 0 mm 2 m/s 757 mmHg 57%
20:00 +6°C° 0 mm 2 m/s 757 mmHg 67%
21:00 +6°C° 0 mm 2 m/s 757 mmHg 69%
22:00 +5°C° 0 mm 2 m/s 757 mmHg 71%
23:00 +4°C° 0 mm 3 m/s 757 mmHg 73%

Mâine, 10 Mai, Luni

Timp Temperatura Precipitaţii Vânt Presiune Umiditate
00:00 +4°C° 0 mm 3 m/s 758 mmHg 71%
01:00 +4°C° 0 mm 3 m/s 758 mmHg 69%
02:00 +5°C° 0 mm 4 m/s 758 mmHg 67%
03:00 +5°C° 0 mm 4 m/s 758 mmHg 68%
04:00 +5°C° 0 mm 4 m/s 758 mmHg 68%
05:00 +6°C° 0 mm 4 m/s 758 mmHg 68%
06:00 +7°C° 0 mm 4 m/s 758 mmHg 66%
07:00 +8°C° 0 mm 4 m/s 758 mmHg 64%
08:00 +10°C° 0 mm 4 m/s 758 mmHg 63%
09:00 +12°C° 0 mm 5 m/s 758 mmHg 59%
10:00 +14°C° 0 mm 5 m/s 758 mmHg 55%
11:00 +15°C° 0 mm 5 m/s 758 mmHg 51%
12:00 +16°C° 0 mm 5 m/s 758 mmHg 50%
13:00 +17°C° 0 mm 5 m/s 758 mmHg 49%
14:00 +19°C° 0 mm 5 m/s 758 mmHg 48%
15:00 +19°C° 0 mm 4 m/s 758 mmHg 50%
16:00 +19°C° 0 mm 4 m/s 758 mmHg 53%
17:00 +19°C° 0 mm 4 m/s 758 mmHg 56%
18:00 +17°C° 0 mm 3 m/s 758 mmHg 64%
19:00 +14°C° 0 mm 3 m/s 759 mmHg 72%
20:00 +13°C° 0 mm 2 m/s 759 mmHg 80%
21:00 +11°C° 0 mm 3 m/s 759 mmHg 82%
22:00 +10°C° 0 mm 3 m/s 760 mmHg 84%
23:00 +10°C° 0 mm 3 m/s 760 mmHg 86%

Poimâine, 11 Mai, Marţi

Timp Temperatura Precipitaţii Vânt Presiune Umiditate
00:00 +9°C° 0 mm 3 m/s 760 mmHg 86%
01:00 +8°C° 0 mm 2 m/s 760 mmHg 87%
02:00 +8°C° 0 mm 2 m/s 760 mmHg 88%
03:00 +8°C° 0 mm 2 m/s 760 mmHg 87%
04:00 +7°C° 0 mm 3 m/s 760 mmHg 85%
05:00 +7°C° 0 mm 3 m/s 760 mmHg 84%
06:00 +9°C° 0 mm 3 m/s 760 mmHg 75%
07:00 +11°C° 0 mm 3 m/s 760 mmHg 66%
08:00 +14°C° 0 mm 4 m/s 760 mmHg 57%
09:00 +15°C° 0 mm 4 m/s 760 mmHg 51%
10:00 +18°C° 0 mm 4 m/s 760 mmHg 46%
11:00 +19°C° 0 mm 3 m/s 760 mmHg 40%
12:00 +20°C° 0 mm 3 m/s 760 mmHg 39%
13:00 +20°C° 0 mm 3 m/s 760 mmHg 38%
14:00 +21°C° 0 mm 3 m/s 760 mmHg 38%
15:00 +21°C° 0 mm 3 m/s 759 mmHg 41%
16:00 +21°C° 0 mm 3 m/s 759 mmHg 44%
17:00 +20°C° 0 mm 3 m/s 759 mmHg 47%
18:00 +18°C° 0 mm 3 m/s 759 mmHg 55%
19:00 +16°C° 0 mm 2 m/s 759 mmHg 63%
20:00 +13°C° 0 mm 2 m/s 759 mmHg 71%
21:00 +12°C° 0 mm 2 m/s 759 mmHg 73%
22:00 +10°C° 0 mm 2 m/s 759 mmHg 75%
23:00 +9°C° 0 mm 2 m/s 759 mmHg 77%

12 Mai, Miercuri

Timp Temperatura Precipitaţii Vânt Presiune Umiditate
00:00 +9°C° 0 mm 2 m/s 759 mmHg 79%
01:00 +9°C° 0 mm 2 m/s 759 mmHg 82%
02:00 +9°C° 0 mm 2 m/s 758 mmHg 85%
03:00 +9°C° 0 mm 2 m/s 758 mmHg 86%
04:00 +9°C° 0 mm 2 m/s 758 mmHg 88%
05:00 +10°C° 0 mm 1 m/s 758 mmHg 89%
06:00 +12°C° 0 mm 2 m/s 758 mmHg 83%
07:00 +15°C° 0 mm 2 m/s 758 mmHg 76%
08:00 +17°C° 0 mm 2 m/s 758 mmHg 70%
09:00 +19°C° 0 mm 3 m/s 758 mmHg 65%
10:00 +20°C° 0 mm 3 m/s 757 mmHg 60%
11:00 +22°C° 0 mm 4 m/s 757 mmHg 55%
12:00 +22°C° 0 mm 4 m/s 756 mmHg 52%
13:00 +23°C° 0 mm 4 m/s 756 mmHg 49%
14:00 +23°C° 0 mm 5 m/s 755 mmHg 47%
15:00 +21°C° 0.2 mm 4 m/s 755 mmHg 60%
16:00 +18°C° 0.2 mm 4 m/s 755 mmHg 73%
17:00 +15°C° 0.2 mm 4 m/s 755 mmHg 87%
18:00 +13°C° 0 mm 3 m/s 755 mmHg 88%
19:00 +12°C° 0 mm 3 m/s 755 mmHg 90%
20:00 +11°C° 0 mm 3 m/s 755 mmHg 92%
21:00 +10°C° 0 mm 3 m/s 755 mmHg 93%
22:00 +9°C° 0 mm 2 m/s 755 mmHg 95%
23:00 +8°C° 0 mm 2 m/s 754 mmHg 97%

13 Mai, Joi

Timp Temperatura Precipitaţii Vânt Presiune Umiditate
00:00 +8°C° 0 mm 2 m/s 754 mmHg 97%
01:00 +7°C° 0 mm 2 m/s 754 mmHg 97%
02:00 +7°C° 0 mm 2 m/s 753 mmHg 97%
03:00 +7°C° 0 mm 2 m/s 753 mmHg 97%
04:00 +8°C° 0 mm 2 m/s 752 mmHg 96%
05:00 +8°C° 0 mm 2 m/s 752 mmHg 96%
06:00 +9°C° 0.1 mm 3 m/s 751 mmHg 92%
07:00 +11°C° 0.1 mm 4 m/s 751 mmHg 87%
08:00 +12°C° 0.1 mm 4 m/s 750 mmHg 83%
09:00 +12°C° 0.3 mm 5 m/s 750 mmHg 78%
10:00 +13°C° 0.3 mm 5 m/s 750 mmHg 73%
11:00 +13°C° 0.3 mm 6 m/s 750 mmHg 68%
12:00 +13°C° 0.3 mm 6 m/s 750 mmHg 68%
13:00 +13°C° 0.3 mm 6 m/s 750 mmHg 69%
14:00 +11°C° 0.3 mm 6 m/s 751 mmHg 69%
15:00 +13°C° 0.1 mm 5 m/s 750 mmHg 69%
16:00 +13°C° 0.1 mm 5 m/s 750 mmHg 69%
17:00 +13°C° 0.1 mm 4 m/s 750 mmHg 69%
18:00 +12°C° 0 mm 3 m/s 750 mmHg 73%
19:00 +11°C° 0 mm 3 m/s 751 mmHg 77%
20:00 +10°C° 0 mm 2 m/s 751 mmHg 81%
21:00 +10°C° 0 mm 2 m/s 751 mmHg 83%
22:00 +9°C° 0 mm 3 m/s 751 mmHg 86%
23:00 +9°C° 0 mm 3 m/s 751 mmHg 88%

14 Mai, Vineri

Timp Temperatura Precipitaţii Vânt Presiune Umiditate
00:00 +9°C° 0.3 mm 2 m/s 750 mmHg 91%
01:00 +9°C° 0.3 mm 2 m/s 750 mmHg 94%
02:00 +9°C° 0.3 mm 2 m/s 750 mmHg 96%
03:00 +9°C° 0.6 mm 2 m/s 749 mmHg 97%
04:00 +9°C° 0.6 mm 2 m/s 749 mmHg 98%
05:00 +10°C° 0.6 mm 2 m/s 748 mmHg 98%
06:00 +10°C° 0.7 mm 2 m/s 748 mmHg 98%
07:00 +10°C° 0.7 mm 2 m/s 748 mmHg 98%
08:00 +12°C° 0.7 mm 1 m/s 747 mmHg 98%
09:00 +12°C° 0.4 mm 1 m/s 747 mmHg 98%
10:00 +12°C° 0.4 mm 1 m/s 747 mmHg 97%
11:00 +13°C° 0.4 mm 1 m/s 747 mmHg 96%
12:00 +14°C° 0.4 mm 1 m/s 747 mmHg 92%
13:00 +15°C° 0.4 mm 1 m/s 747 mmHg 88%
14:00 +15°C° 0.4 mm 1 m/s 748 mmHg 84%
15:00 +16°C° 0.2 mm 1 m/s 747 mmHg 81%
16:00 +18°C° 0.2 mm 1 m/s 747 mmHg 78%
17:00 +18°C° 0.2 mm 1 m/s 747 mmHg 75%
18:00 +16°C° 0.3 mm 1 m/s 747 mmHg 81%
19:00 +15°C° 0.3 mm 1 m/s 747 mmHg 86%
20:00 +14°C° 0.3 mm 1 m/s 747 mmHg 92%
21:00 +13°C° 0.2 mm 1 m/s 747 mmHg 93%
22:00 +13°C° 0.2 mm 1 m/s 747 mmHg 95%
23:00 +12°C° 0.2 mm 1 m/s 747 mmHg 96%
Arată mai mult

Formular de consimțământ

Meteoprog și furnizorii noștri de servicii pot stoca și accesa date personale, precum cookies, identificatori de dispozitiv sau alte tehnologii similare pe dispozitivul dumneavoastră și procesa astfel de date pentru a personaliza conținutul și reclamele, dar și pentru a oferi caracteristici de social media și pentru a analiza traficul.

  • Stocarea și/sau accesarea informațiilor pe dispozitivul dumneavoastră

    Cookies, identificatori de dispozitiv sau alte informații pot fi stocate sau accesate pe dispozitiv în scopurile indicate mai sus.

  • Reclame și conținut personalizat, evaluarea reclamelor și a conținutului, informații despre audiențe și dezvoltarea produselor

    Reclamele și conținutul pot fi personalizate pe baza unui profil. Pot fi adăugate date suplimentare pentru a personaliza mai bine reclamele și conținutul. Performanța reclamelor și conținutului poate fi măsurată. Pot fi obținute informații despre utilizatorii care au văzut reclamele și conținutul. Aceste date pot fi utilizate pentru a dezvolta sau îmbunătăți experiența utilizatorilor, sistemele și software-ul.

Dând clic pe ‘Sunt de acord’, permiteți utilizarea cookie-urilor menționate, a identificatorilor de dispozitiv, balizelor web sau altor tehnologii similare. Setările pot fi modificate din browser-ul dispozitivului dumneavoastră.

În anumite scopuri, interesele legitime pot prima asupra consimțământului. Puteți citi mai multe informații în acest sens în Politica privind Confidențialitatea Datelor și Cookie.